Regional Weather Roundup
Issued by NWS

Home | Current Version | Previous Version | Text Only | Print | Product List | Glossary On
Versions: 1 2 3 4 5 6 7 8 9 10 11 12 13 14 15 16 17 18 19 20 21 22 23 24 25 26 27 28 29 30 31 32 33 34 35 36 37 38 39 40 41 42 43 44 45 46 47 48 49 50
000
ASUS43 KTOP 270059
RWRKS

WEATHER ROUNDUP FOR KANSAS
NATIONAL WEATHER SERVICE GOODLAND KS
700 PM CST SUN FEB 26 2017

NOTE:  "FAIR" INDICATES FEW OR NO CLOUDS BELOW 12,000 FEET WITH NO
SIGNIFICANT WEATHER AND/OR OBSTRUCTIONS TO VISIBILITY.

KSZ001>006-013>018-027>032-041>047-270200-
NORTHWEST KANSAS

CITY           SKY/WX    TMP DP  RH WIND       PRES   REMARKS
GOODLAND       CLEAR     29   7  39 SE12      29.85R WCI  19
HAYS           CLEAR     40   7  25 NE6       29.96R
HILL CITY      CLEAR     33   7  33 N7        29.94R
RUSSELL        CLEAR     41   5  22 N7        29.94R
$$

KSZ061>065-074>080-084>089-270200-
SOUTHWEST KANSAS

CITY           SKY/WX    TMP DP  RH WIND       PRES   REMARKS
DODGE CITY     CLEAR     37  11  34 E8        29.91R
ELKHART          N/A     45   7  21 E17         N/A
GARDEN CITY    CLEAR     39   8  27 E9        29.89R
GREAT BEND     CLEAR     44  12  27 NE6       29.96R
LIBERAL        PTCLDY    46  10  23 E9        29.88R
$$

KSZ066>073-081>083-090>101-270200-
SOUTHEAST KANSAS

CITY           SKY/WX    TMP DP  RH WIND       PRES   REMARKS
CHANUTE        CLEAR     42  32  67 E6        29.99R
COFFEYVILLE    CLEAR     40  32  73 NE7       29.98R
HUTCHINSON     CLEAR     43  23  45 N6        29.96R
MEDICINE LODGE   N/A     45  22  40 E6        29.95R
NEWTON         CLEAR     42  23  46 N7        29.97R
PARSONS        CLEAR     40  32  73 CALM      29.99R
WICHITA INTL   PTCLDY    47  23  38 N6        29.95R
WICHITA JABRA  CLEAR     45  25  45 N5        29.96R
WINFIELD       CLEAR     43  33  68 N5        29.96R
$$

KSZ007>012-019>026-033>040-048>060-102>105-270200-
NORTHEAST KANSAS

CITY           SKY/WX    TMP DP  RH WIND       PRES   REMARKS
CONCORDIA      CLEAR     43   9  24 NW3       29.95R
EMPORIA        CLEAR     43  26  51 SE7       29.96R
LAWRENCE       PTCLDY    44  33  65 SE10      29.98R
MANHATTAN      CLEAR     47  22  37 CALM      29.96R
OLATHE IND     CLEAR     42  34  73 SE10      29.99R
OLATHE EXE     CLEAR     41  36  82 SE9       29.99R
SALINA         CLEAR     47  15  27 CALM      29.97R
TOPEKA BILLARD CLEAR     48  25  40 W3        29.97R
TOPEKA FORBES  CLEAR     42  24  49 W5        29.97R
$$




USA.gov is the U.S. government's official web portal to all federal, state and local government web resources and services.